www.pogodaiklimat.ru

Погода и климат >> Архив погоды >> Россия >> Томская область >> Степановка


ПОГОДА в Степановке

  • Прогноз погоды в Степановке
  • Монитор погоды в Степановке

АРХИВ ПОГОДЫ в Степановке

Время (UTC), дата Ветер
(напр.,м/с)
 
Видим.   Явления Облачность Т
(С)
Тd
(С)
f
(%)
Тe
(С)
Тes
(С)
Комфортность P
(гПа)
Po
(гПа)
Тmin
(С)
Tmax
(С)
R
(мм)
R24
(мм)
S
(см)
09 15.02 Ю 2 20 км 9/0
[Ci fib]
-3.5 -10.3 59 -7 -6 1024.9 1011.5
12 15.02 Ю 2 20 км 9/0
[Ci fib]
-5.6 -11.4 64 -10 -10 1024.7 1011.2 -3.2
15 15.02 Ю 2 20 км 10/0
[Ac und]
-5.6 -10.5 68 -10 -10 1023.7 1010.2
18 15.02 Ю 2 20 км 6/0
[Ac As]
-7.6 -10.6 79 -12 -12 1022.6 1009.0
21 15.02 ЮВ 1 20 км 4/0
[Ci fib]
-8.6 -11.4 80 -11 -11 1021.1 1007.4
00 16.02 ЮВ 2 20 км 8/0
[Ci fib]
-8.7 -11.4 81 -13 -13 1018.5 1004.9 -9.1 72
03 16.02 Ю 2 20 км 10/0
[Ci fib]
-7.9 -11.9 73 -12 -12 1016.1 1002.6
06 16.02 Ю 3 20 км 10/0
[Ac trans Ci fib]
-4.6 -11.3 59 -10 -8 1013.8 1000.5
09 16.02 Ю 3 20 км 10/3 300 м
[Cb cap Ac trans Ci fib]
-3.0 -9.0 63 -8 -7 1012.4 999.2
12 16.02 Ю 2 20 км 10/10 600 м
[Sc]
-4.3 -9.9 65 -8 -8 1012.7 999.4 -2.6
15 16.02 ЮЗ 4
{11}
20 км 10/10 600 м
[Sc]
-5.2 -10.4 67 -11 -11 1013.2 999.9
18 16.02 ЮЗ 3 20 км 10/10 600 м
[Cb cap]
-6.4 -10.1 75 -12 -12 1013.7 1000.3
21 16.02 ЮЗ 4 4000 м слаб. ливневой снег 10/10 600 м
[Cb cap]
-8.2 -11.4 78 -15 -15 1014.4 1000.9
00 17.02 ЮЗ 1 4000 м слаб. снег 10/0
[As op]
-9.6 -12.0 83 -12 -12 1014.4 1000.8 -9.6 0.2 72
03 17.02 ЮВ 1 4000 м слаб. снег 10/0 300 м
[As op]
-9.5 -11.2 87 -12 -12 1014.0 1000.4 -10.5
06 17.02 Ю 2 20 км в посл. час снег 10/0
[As op]
-5.0 -8.8 75 -9 -9 1012.1 998.7
09 17.02 ЮВ 3 4000 м слаб. ливневой снег 10/10 600 м
[Cb cap]
-4.1 -7.8 75 -9 -9 1009.1 995.9
12 17.02 ЮВ 2 4000 м слаб. ливневой снег 10/10 600 м
[Cb cap]
-4.7 -6.0 91 -9 -9 1006.7 993.5 -3.9 1
15 17.02 Ю 2 4000 м слаб. снег 10/0
[As op]
-3.4 -4.5 92 -8 -8 1004.3 991.2
18 17.02 Ю 2 4000 м слаб. снег 10/0
[As op]
-2.2 -3.1 94 -6 -6 1002.6 989.5
21 17.02 Ю 2 4000 м слаб. снег 10/0
[As op]
-2.2 -3.2 93 -6 -6 1001.9 988.8
00 18.02 Ю 2 4000 м слаб. снег 10/0 300 м
[As op]
-3.1 -4.1 93 -7 -7 1001.7 988.6 -4.7 4 74
03 18.02 Ю 2 4000 м слаб. снег 10/0
[As op]
-3.5 -4.5 93 -8 -8 1001.8 988.7
06 18.02 Ю 2 4000 м слаб. снег 10/6 600 м
[Sc As op]
-2.6 -4.2 89 -7 -6 1001.9 988.8
09 18.02 ЮЗ 1 4000 м слаб. снег 10/0
[As op]
-2.4 -4.0 89 -5 -4 1002.5 989.4
12 18.02 ЮВ 1 4000 м слаб. снег 10/0 600 м
[As op]
-3.5 -4.8 91 -6 -6 1003.4 990.3 -2.1 3
15 18.02 Ю 1 4000 м слаб. снег 10/0
[As op]
-4.0 -5.2 91 -6 -6 1004.1 990.9
18 18.02 Ю 1 4000 м слаб. снег 10/0
[As op]
-4.3 -5.3 93 -7 -7 1004.2 991.0
21 18.02 Ю 1 4000 м слаб. снег 10/0
[As op]
-4.2 -5.4 91 -7 -7 1004.6 991.5
00 19.02 Ю 1 4000 м слаб. снег 10/0 600 м
[As op]
-4.1 -5.1 93 -7 -7 1005.8 992.6 -4.5 3 79
03 19.02 Ю 2 4000 м слаб. снег 10/0
[As op]
-2.9 -4.4 89 -7 -7 1007.8 994.6
06 19.02 Ю 3 4000 м слаб. ливневой снег 10/10 600 м
[Cb cap]
-2.1 -4.8 82 -7 -7 1009.7 996.6
09 19.02 Ю 3 20 км {ливн. осадки, метель} 8/8 600 м
[Cb cap Ci fib]
-1.8 -6.1 72 -7 -6 1010.7 997.6
12 19.02 Ю 2 20 км {ливн. осадки, метель} 6/0
[As trans]
-3.7 -7.1 77 -8 -8 1011.9 998.7 -1.5 0.4
15 19.02 Ю 3 20 км 8/8 600 м
[Sc]
-3.5 -6.1 82 -9 -9 1012.2 999.0
18 19.02 Ю 2 4000 м слаб. ливневой снег 10/8 600 м
[Cb cap Ci fib]
-3.8 -5.7 87 -8 -8 1013.3 1000.0
21 19.02 Ю 2 4000 м слаб. снег 10/0
[As op]
-4.7 -6.5 87 -9 -9 1013.6 1000.3
00 20.02 ЮВ 2 4000 м слаб. снег 10/0 300 м
[As op]
-3.9 -5.0 92 -8 -8 1013.2 999.9 -5.2 0.6 79
03 20.02 Ю 2 4000 м слаб. снег 10/0
[As op]
-2.4 -3.8 90 -6 -6 1013.6 1000.4
06 20.02 Ю 3 20 км {снег} 10/10 600 м
[Cb cap]
0.0 -3.7 76 -4 -4 1014.9 1001.8
09 20.02 Ю 3 20 км 10/10 600 м
[Cb cap]
+0.9 -3.9 70 -3 -3 1015.3 1002.3
12 20.02 Ю 1 4000 м слаб. ливневой снег 10/10 600 м
[Cb cap]
-0.7 -1.9 92 -3 -3 1016.1 1002.9 +1.0 0.7
15 20.02 ЮВ 1 4000 м слаб. снег 10/0
[As op]
-1.1 -1.9 94 -3 -3 1015.6 1002.4
18 20.02 ЮВ 1 4000 м слаб. снег 10/0
[As op]
-0.9 -1.7 94 -3 -3 1014.1 1001.0
21 20.02 Ю 1 4000 м слаб. снег 10/0
[As op]
-1.2 -2.7 90 -3 -3 1012.6 999.5
00 21.02 Ю 2 20 км {снег} 10/10 600 м
[Sc]
-1.4 -3.4 86 -5 -5 1013.8 1000.6 -1.4 2 80
03 21.02 Ю 2 20 км в посл. час крупа {ливн. осадки} 10/10 600 м
[Cb cap]
-1.3 -3.1 88 -5 -5 1015.3 1002.2 -1.4
06 21.02 ЮЗ 3 20 км осадки на расстоянии {ливн. осадки} 10/10 600 м
[Cb cap]
-1.2 -3.2 86 -6 -6 1017.8 1004.6
09 21.02 ЮЗ 3 20 км 9/8 600 м
[Cb cap Ac cuf Ci ing]
-1.9 -6.5 71 -7 -6 1019.9 1006.6
12 21.02 З 1 20 км в посл. час ливневой снег 10/10 600 м
[Cb cap]
-2.9 -5.8 80 -5 -5 1021.4 1008.1 -0.8 0.3
15 21.02 ЮЗ 1 4000 м слаб. ливневой снег 10/10 600 м
[Cb cap]
-3.4 -4.6 91 -6 -6 1022.8 1009.4
18 21.02 ЮЗ 2 4000 м слаб. ливневой снег 10/10 600 м
[Cb cap]
-3.5 -5.7 85 -8 -8 1024.2 1010.8
21 21.02 Ю 2 20 км {ливн. осадки} 10/10 600 м
[Cb cap]
-4.6 -6.8 85 -9 -9 1026.1 1012.6
00 22.02 ЮЗ 2 20 км {ливн. осадки} 9/9 600 м
[Sc]
-6.1 -8.3 84 -10 -10 1027.6 1014.0 -6.1 0.4 80
03 22.02 Ю 2 4000 м слаб. ливневой снег 10/6 600 м
[Cb cap Ci fib]
-6.8 -9.3 82 -11 -11 1028.7 1015.1 -6.8
06 22.02 Ю 3 20 км {ливн. осадки} 10/5 600 м
[Cb cap Ac As Ci fib]
-5.7 -10.4 69 -11 -10 1028.6 1015.1

 

Местоположение метеостанции Степановка (Томская область, Россия): широта 58.63 долгота 86.73 высота над уровнем моря 105 м.

В архиве по умолчанию представлена погода в Степановке за последнюю неделю. Архивные данные за месяц целиком и за предыдущие месяцы, начиная с января 2011 года, Вы можете получить, выбрав интересующий диапазон дат из раскрывающегося списка и нажав кнопку "Ввод!".


*Определитесь, кто Вы:
робот инопланетянин человек

Внимание! Время в таблицах - всемирное. Для получения местного времени необходимо прибавить поправку, которая равна 7 ч.

Смотрите также архив погоды в соседних городах и на ближайших метеорологических станциях:

Погода в Усть-Озерном (Томская область, Россия) (65 км)
Погода в Батурино (Томская область, Россия) (132 км)
Погода в Лосиноборске (Красноярский край, Россия) (155 км)
Погода в Тегульдете (Томская область, Россия) (170 км)
Погода в Александровском Шлюзе (Красноярский край, Россия) (171 км)
Погода в Первомайском (Томская область, Россия) (176 км)
Погода в Молчаново (Томская область, Россия) (209 км)
Погода в Сыме (Красноярский край, Россия) (213 км)
Погода в Колпашево (Томская область, Россия) (222 км)
Погода в Ванжиль-Кынаке (Томская область, Россия) (243 км)

Пояснения к столбцам:

Ветер - указаны скорость ветра в м/с - средняя за 10 мин, порывы в срок и между сроками (в фигурных скобках) и направление, откуда дует ветер: С - северный, СВ - северо-восточный, В - восточный, ЮВ - юго-восточный, Ю - южный, ЮЗ - юго-западный, З - западный, СЗ - северо-западный.
Видимость - горизонтальная дальность видимости в метрах или километрах. При видимости от 1 до 10 км при отсутствии осадков обычно наблюдается дымка, при ухудшении видимости до 1 км и менее - туман. В сухую погоду видимость может ухудшаться дымом, пылью или мглою.
Явления - указаны атмосферные явления, наблюдавшиеся в срок или в последний час перед сроком; фигурными скобками обозначены явления, наблюдавшиеся между сроками (за 1-3 часа до срока); квадратными скобками обозначены град или гололедные отложения с указанием их диаметра в мм.
Облачность - указаны через наклонную черту общая и нижняя облачность в баллах и высота нижней границы облаков в метрах; квадратными скобками обозначены формы облаков: Ci - перистые, Cs - перисто-слоистые, Cc - перисто-кучевые, Ac - высококучевые, As - высокослоистые, Sc - слоисто-кучевые, Ns - слоисто-дождевые, Cu - кучевые, Cb - кучево-дождевые. Подробнее классификацию облаков см. в Атласе облаков (PDF).
T - Температура воздуха - температура, измеренная на высоте 2 м над землей.
Td - Температура точки росы - температура, при понижении до которой содержащийся в воздухе водяной пар достигнет насыщения.
f - Относительная влажность воздуха - влажноcть воздуха, измеренная на высоте 2 м над землей.
Te - Эффективная температура - температура, которую ощущает одетый по сезону человек в тени. Характеристика душности погоды. При расчете учитывается влияние влажности воздуха и скорости ветра на теплоощущения человека.
Tes - Эффективная температура на солнце - температура, которую ощущает человек, с поправкой на солнечный нагрев. Характеристика знойности погоды. Зависит от высоты солнца над горизонтом, облачности и скорости ветра. Ночью, в пасмурную погоду, а также при ветре 12 м/с и более поправка равна нулю.
P - Атмосферное давление - приведенное к уровню моря атмосферное давление.
Po - Атмосферное давление - измеренное на уровне метеостанции атмосферное давление.
Tmin - Минимальная температура - минимум температуры воздуха на высоте 2 м над землей.
Tmax - Максимальная температура - максимум температуры воздуха на высоте 2 м над землей.
R - Количество осадков - Количество выпавших осадков за период времени, мм. При наведении курсора мыши на число - период времени, за который выпало указанное количество осадков.
R24 - Количество осадков - Количество выпавших осадков за 24 часа, мм.
S - Снежный покров - Высота снежного покрова, см. При наведении курсора мыши на число - состояние снежного покрова и степень покрытия местности в баллах.